Weather History for Homer, AK

Change the Weather History Date:

Sunday, November 3, 2013

  Actual Average Record
Temperature  
Mean Temperature 44 °F -  
Max Temperature 51 °F 37 °F 54 °F (2002)
Min Temperature 37 °F 26 °F 1 °F (1975)
Degree Days  
Heating Degree Days 21    
Moisture  
Dew Point 35 °F    
Average Humidity 63    
Maximum Humidity 76    
Minimum Humidity 56    
Precipitation  
Precipitation 0.00 in - - ()
Sea Level Pressure  
Sea Level Pressure 29.65 in    
Wind  
Wind Speed 4 mph (SE)    
Max Wind Speed 9 mph    
Max Gust Speed 20 mph    
Visibility 10 miles    
Events      
Averages and records for this station are not official NWS values.
T = Trace of Precipitation, MM = Missing Value Source: NWS Daily Summary

Daily Weather History Graph

Daily Weather History Graph

Search for Another Location

Airport:

Trip Planner

Search our weather history database for the weather conditions in past years. The results will help you decide how hot, cold, wet, or windy it might be!

Date:

Astronomy

Nov. 03, 2013 Rise Set
Actual Time 8:32 AM AKST 5:05 PM AKST
Civil Twilight 7:47 AM AKST 5:50 PM AKST
Nautical Twilight 6:58 AM AKST 6:39 PM AKST
Astronomical Twilight 6:10 AM AKST 7:27 PM AKST
Moon 8:55 AM AKST (11/3) 5:17 PM AKST (11/3)
Length of Visible Light 10h 02m
Length of Day
8h 32m
New Moon, 0% of the Moon is Illuminated
Nov 3
New Moon
Nov 9
First Quarter
Nov 17
Full
Nov 25
Last Quarter
Dec 2
New

Hourly Weather History & Observations

Time (AKST) Temp. Windchill Dew Point Humidity Pressure Visibility Wind Dir Wind Speed Gust Speed Precip Events Conditions
12:53 AM 43.0 °F 41.3 °F 32.0 °F 65% 29.74 in 10.0 mi Variable 3.5 mph - N/A   Clear
1:53 AM 37.9 °F - 30.9 °F 76% 29.75 in 10.0 mi Calm Calm - N/A   Mostly Cloudy
1:53 AM 46.9 °F - 34.0 °F 61% 29.75 in 10.0 mi SE 4.6 mph - N/A   Overcast
3:53 AM 48.0 °F - 35.1 °F 61% 29.74 in 10.0 mi Variable 3.5 mph - N/A   Overcast
4:53 AM 44.1 °F - 34.0 °F 68% 29.73 in 10.0 mi Calm Calm - N/A   Overcast
5:53 AM 48.0 °F - 34.0 °F 58% 29.71 in 10.0 mi SE 9.2 mph - N/A   Mostly Cloudy
6:53 AM 48.9 °F - 34.0 °F 56% 29.72 in 10.0 mi Variable 5.8 mph - N/A   Overcast
7:53 AM 48.0 °F - 34.0 °F 58% 29.70 in 10.0 mi SE 9.2 mph 19.6 mph N/A   Mostly Cloudy
8:53 AM 48.9 °F - 34.0 °F 56% 29.72 in 10.0 mi ESE 4.6 mph - N/A   Mostly Cloudy
9:53 AM 48.9 °F - 35.1 °F 59% 29.71 in 10.0 mi Variable 5.8 mph - N/A   Overcast
10:53 AM 50.0 °F - 35.1 °F 57% 29.70 in 10.0 mi SE 9.2 mph - N/A   Overcast
11:53 AM 50.0 °F - 36.0 °F 59% 29.69 in 10.0 mi SE 8.1 mph - N/A   Overcast
12:53 PM 50.0 °F - 37.0 °F 61% 29.68 in 10.0 mi SSE 5.8 mph - N/A   Overcast
1:53 PM 51.1 °F - 37.0 °F 59% 29.66 in 10.0 mi SE 9.2 mph 17.3 mph N/A   Overcast
2:53 PM 50.0 °F - 39.0 °F 66% 29.64 in 10.0 mi West 4.6 mph - N/A   Overcast
3:53 PM 50.0 °F - 37.0 °F 61% 29.61 in 10.0 mi Calm Calm - N/A   Overcast
4:53 PM 50.0 °F - 37.0 °F 61% 29.59 in 10.0 mi Calm Calm - N/A   Overcast
5:53 PM 48.0 °F - 36.0 °F 63% 29.56 in 10.0 mi Calm Calm - N/A   Overcast
6:53 PM 46.0 °F - 34.0 °F 63% 29.55 in 10.0 mi Calm Calm - N/A   Mostly Cloudy
7:53 PM 44.1 °F - 35.1 °F 71% 29.52 in 10.0 mi Calm Calm - N/A   Mostly Cloudy
8:53 PM 42.1 °F - 35.1 °F 76% 29.50 in 10.0 mi Calm Calm - N/A   Overcast
9:53 PM 43.0 °F - 35.1 °F 74% 29.49 in 10.0 mi Calm Calm - N/A   Overcast
10:53 PM 46.0 °F 44.8 °F 34.0 °F 63% 29.47 in 10.0 mi North 3.5 mph - N/A   Overcast